Overview Statistics Trail Chart Weather Telemetry Raw packets
 

This is the latest recevied weather packets stored in our database for station/object VE3DVC. If no packets are shown the sender has not sent any weather packets the latest 10 day(s).

<< 8 9 10 11 12 13 14 >>
Time Temp. Humidity Pressure Rain* Wind** Luminosity Snow
1788531427 20° C 91% 1016.2 hPa 0 mm - - -
1788530707 20° C 91% 1016.1 hPa 0 mm - - -
1788529986 19.44° C 91% 1015.8 hPa 0 mm - - -
1788529266 19.44° C 91% 1015.7 hPa 0 mm - - -
1788528546 19.44° C 91% 1015.6 hPa 0 mm - - -
1788527827 19.44° C 91% 1015.4 hPa 0 mm - - -
1788527106 19.44° C 91% 1015.6 hPa 0 mm - - -
1788526387 19.44° C 91% 1015.7 hPa 0 mm - - -
1788525666 19.44° C 91% 1015.7 hPa 0 mm - - -
1788524947 18.89° C 91% 1016 hPa 0 mm - - -
1788524228 18.89° C 91% 1016 hPa 0 mm - - -
1788523507 18.89° C 91% 1015.9 hPa 0 mm - - -
1788522786 18.89° C 91% 1015.8 hPa 0 mm - - -
1788522067 18.89° C 91% 1015.6 hPa 0 mm - - -
1788521347 18.33° C 91% 1015.4 hPa 0 mm - - -
1788520627 18.33° C 91% 1015.3 hPa 0 mm - - -
1788519906 18.33° C 91% 1015.4 hPa 0 mm - - -
1788519187 18.33° C 91% 1015.2 hPa 0 mm - - -
1788518467 18.33° C 91% 1015.1 hPa 0 mm - - -
1788517747 18.89° C 91% 1015.1 hPa 0 mm - - -
1788516672 18.89° C 91% 1015.1 hPa 0 mm - - -
1788515952 18.89° C 91% 1015.3 hPa 0 mm - - -
1788514564 19.44° C 91% 1015.2 hPa 0 mm - - -
1788513845 19.44° C 91% 1015.3 hPa 0 mm - - -
1788513124 19.44° C 91% 1015 hPa 0 mm - - -

* Rain latest hour (hover to see other rain measurements)
** Current wind speed in m/s (hover to see current wind gust speed)